Find Yunyao-1 56

NORAD ID: 63292 Int'l Des: NNA 2025-055 Owner: YYAO Country: CN operational
LEOCIRCULARRETROGRADESSO

Live Position

Loading 3D Globe...

About Yunyao-1 56

Description loading...

Upcoming Passes

Passes for default location (London). Set your location on the main map for personalized predictions.

Altitude History

Loading altitude history...

Two-Line Element Set

1 63292U 25055B 26105.32125970 .00004159 00000-0 22551-3 0 9999
2 63292 97.6410 246.1183 0024923 349.6399 10.4316 15.14883921 59583
Epoch: Apr 15, 2026 • Age: 21 hours

Current Status

Altitude 531.7 km
Velocity 7.60 km/s
Sub-Earth Point 69.80°N, 48.08°W
Launch Date Mar 17, 2025
Age 1 years
Type other

Technical Details

Classification Payload
Mass 50.00 kg
Dry Mass 50.00 kg
Total Mass 50.00 kg
Length 2.00 m
Diameter 1.50 m
Span 5.00 m
Shape Box + pan
Manufacturer CGSTL
Bus Type YY-1
Phase Status In Orbit
Owner/State YYAO/CN

Most Searched